Location: Plainartige
(45.6866°N, 1.7993°E)
Time: 04:17:58
(UTC+00:00)

Vanguard 1 - Pass Details

Date: 25 May 2022
Orbit: 649 x 3833 km, 34.2° (Epoch: 06 July)

Event Time Altitude Azimuth Distance (km) Brightness Sun altitude
Exits shadow 02:27:17 13° 238° (WSW) 4,996 13.1 -14.4°
Maximum altitude 02:42:34 57° 167° (SSE) 3,861 12.8 -12.7°
Drops below altitude 10° 03:05:07 10° 97° (E) 6,892 14.9 -10.0°
Sets 03:10:23 0° 94° (E) 7,788 15.3 -9.3°
